Data for 12/21/2013

Time Sea-Level Adjusted Pressure Absolute Pressure Temperature Relative Humidity Dew Point   
(mb) (inHg) (mb) (inHg) (C) (F) (%) (C) (F)
00:05 1003 29.62 832 24.57 -6.5 20.4 91 -7.6 18.3
00:10 1003 29.62 832 24.57 -6.5 20.3 92 -7.6 18.4
00:15 1003 29.62 832 24.57 -6.5 20.4 92 -7.5 18.4
00:20 1003 29.62 832 24.57 -6.5 20.3 92 -7.6 18.4
00:25 1003 29.62 832 24.57 -6.5 20.3 92 -7.6 18.4
00:30 1003 29.62 832 24.57 -6.5 20.2 92 -7.6 18.4
00:35 1003 29.62 832 24.57 -6.5 20.3 92 -7.6 18.4
00:40 1003 29.62 832 24.57 -6.5 20.3 92 -7.6 18.4
00:45 1003 29.62 832 24.57 -6.5 20.3 92 -7.6 18.4
00:50 1003 29.62 832 24.57 -6.5 20.3 92 -7.6 18.3
00:55 1003 29.62 832 24.57 -6.5 20.3 92 -7.6 18.4
01:00 1003 29.62 832 24.57 -6.5 20.4 92 -7.6 18.4
01:05 1003 29.62 832 24.57 -6.4 20.4 92 -7.5 18.4
01:10 1003 29.62 832 24.57 -6.4 20.4 92 -7.5 18.5
01:15 1003 29.62 832 24.57 -6.5 20.4 92 -7.6 18.4
01:20 1003 29.62 832 24.57 -6.5 20.4 92 -7.5 18.5
01:25 1003 29.62 832 24.57 -6.5 20.3 92 -7.6 18.4
01:30 1003 29.62 832 24.57 -6.4 20.4 92 -7.5 18.5
01:35 1003 29.62 832 24.57 -6.5 20.4 92 -7.5 18.4
01:40 1003 29.62 832 24.57 -6.5 20.3 92 -7.5 18.4
01:45 1003 29.62 832 24.57 -6.5 20.3 92 -7.5 18.5
01:50 1003 29.62 832 24.57 -6.5 20.3 92 -7.6 18.4
01:55 1003 29.62 832 24.57 -6.5 20.2 92 -7.6 18.3
02:00 1003 29.62 832 24.57 -6.6 20.1 92 -7.6 18.3
02:05 1003 29.62 832 24.57 -6.6 20.1 92 -7.7 18.2
02:10 1003 29.62 832 24.57 -6.6 20.1 92 -7.7 18.2
02:15 1003 29.62 832 24.57 -6.6 20.1 92 -7.7 18.2
02:20 1003 29.62 832 24.57 -6.6 20.2 92 -7.6 18.3
02:25 1003 29.62 832 24.57 -6.5 20.2 92 -7.6 18.3
02:30 1003 29.62 832 24.57 -6.5 20.2 92 -7.6 18.3
02:35 1003 29.62 832 24.57 -6.5 20.2 92 -7.7 18.2
02:40 1003 29.62 832 24.57 -6.5 20.2 92 -7.7 18.2
02:45 1003 29.62 832 24.57 -6.5 20.3 92 -7.6 18.3
02:50 1003 29.62 832 24.57 -6.5 20.3 92 -7.6 18.3
02:55 1003 29.62 832 24.57 -6.4 20.4 92 -7.5 18.4
03:00 1003 29.62 832 24.57 -6.5 20.4 92 -7.5 18.5
03:05 1003 29.62 832 24.57 -6.4 20.4 92 -7.5 18.5
03:10 1003 29.62 832 24.57 -6.4 20.4 92 -7.5 18.5
03:15 1003 29.62 833 24.6 -6.4 20.4 92 -7.5 18.6
03:20 1003 29.62 833 24.6 -6.4 20.4 92 -7.5 18.5
03:25 1003 29.62 833 24.6 -6.5 20.3 92 -7.5 18.5
03:30 1003 29.62 833 24.6 -6.5 20.3 93 -7.5 18.5
03:35 1003 29.62 833 24.6 -6.5 20.2 93 -7.5 18.5
03:40 1003 29.62 833 24.6 -6.5 20.3 93 -7.5 18.5
03:45 1003 29.62 833 24.6 -6.5 20.3 93 -7.5 18.5
03:50 1003 29.62 833 24.6 -6.5 20.3 93 -7.5 18.5
03:55 1003 29.62 833 24.6 -6.5 20.4 93 -7.5 18.5
04:00 1003 29.62 833 24.6 -6.4 20.4 93 -7.4 18.6
04:05 1003 29.62 833 24.6 -6.4 20.5 93 -7.4 18.7
04:10 1004 29.65 833 24.6 -6.4 20.5 93 -7.4 18.7
04:15 1004 29.65 833 24.6 -6.3 20.6 93 -7.3 18.8
04:20 1004 29.65 833 24.6 -6.4 20.6 92 -7.4 18.7
04:25 1004 29.65 833 24.6 -6.4 20.5 93 -7.4 18.6
04:30 1004 29.65 833 24.6 -6.4 20.5 93 -7.4 18.7
04:35 1004 29.65 833 24.6 -6.4 20.5 93 -7.3 18.8
04:40 1004 29.65 833 24.6 -6.4 20.6 93 -7.4 18.8
04:45 1004 29.65 833 24.6 -6.4 20.6 93 -7.4 18.8
04:50 1004 29.65 833 24.6 -6.4 20.6 93 -7.3 18.8
04:55 1004 29.65 833 24.6 -6.3 20.6 93 -7.3 18.8
05:00 1004 29.65 833 24.6 -6.3 20.7 93 -7.3 18.9
05:05 1004 29.65 833 24.6 -6.3 20.7 93 -7.3 18.9
05:10 1004 29.65 833 24.6 -6.3 20.7 93 -7.3 18.9
05:15 1004 29.65 833 24.6 -6.3 20.7 93 -7.3 18.9
05:20 1004 29.65 833 24.6 -6.3 20.7 93 -7.2 19
05:25 1004 29.65 833 24.6 -6.2 20.9 93 -7.1 19.1
05:30 1004 29.65 833 24.6 -6.1 21 93 -7.1 19.3
05:35 1004 29.65 833 24.6 -6 21.2 93 -7 19.4
05:40 1004 29.65 833 24.6 -6 21.2 93 -7 19.5
05:45 1004 29.65 833 24.6 -5.9 21.3 93 -6.9 19.6
05:50 1004 29.65 834 24.63 -5.9 21.4 93 -6.8 19.7
05:55 1004 29.65 834 24.63 -5.9 21.5 93 -6.8 19.7
06:00 1005 29.68 834 24.63 -5.9 21.4 93 -6.9 19.6
06:05 1005 29.68 834 24.63 -5.9 21.4 93 -6.9 19.7
06:10 1005 29.68 834 24.63 -5.8 21.5 93 -6.8 19.8
06:15 1005 29.68 834 24.63 -5.8 21.5 93 -6.8 19.8
06:20 1005 29.68 834 24.63 -5.8 21.6 93 -6.7 19.9
06:25 1005 29.68 834 24.63 -5.7 21.7 93 -6.7 19.9
06:30 1005 29.68 834 24.63 -5.7 21.7 93 -6.7 20
06:35 1005 29.68 834 24.63 -5.7 21.8 93 -6.7 20
06:40 1005 29.68 834 24.63 -5.6 21.9 93 -6.6 20.1
06:45 1005 29.68 834 24.63 -5.7 21.8 93 -6.6 20.1
06:50 1005 29.68 834 24.63 -5.5 22.1 93 -6.5 20.4
06:55 1005 29.68 834 24.63 -5.4 22.2 92 -6.5 20.3
07:00 1005 29.68 834 24.63 -5.3 22.4 93 -6.4 20.5
07:05 1005 29.68 835 24.66 -5.3 22.5 93 -6.3 20.7
07:10 1005 29.68 835 24.66 -5.2 22.6 93 -6.2 20.8
07:15 1006 29.71 835 24.66 -5.2 22.6 93 -6.2 20.8
07:20 1006 29.71 835 24.66 -5.2 22.7 93 -6.1 21
07:25 1006 29.71 835 24.66 -5.1 22.8 93 -6.1 21
07:30 1006 29.71 835 24.66 -5.1 22.8 93 -6 21.1
07:35 1006 29.71 835 24.66 -5.1 22.9 93 -6 21.2
07:40 1006 29.71 835 24.66 -5.1 22.8 93 -6 21.1
07:45 1006 29.71 835 24.66 -5.1 22.9 93 -6 21.2
07:50 1006 29.71 835 24.66 -5.1 22.9 93 -6 21.3
07:55 1006 29.71 836 24.69 -5 22.9 93 -6 21.3
08:00 1006 29.71 836 24.69 -5 23 93 -5.9 21.3
08:05 1007 29.74 836 24.69 -5 23 93 -5.9 21.4
08:10 1007 29.74 836 24.69 -5 23.1 93 -5.9 21.4
08:15 1007 29.74 836 24.69 -5 23 94 -5.9 21.4
08:20 1007 29.74 836 24.69 -5.1 22.8 93 -6 21.1
08:25 1007 29.74 836 24.69 -5.1 22.8 94 -6 21.2
08:30 1007 29.74 836 24.69 -5.1 22.8 94 -6 21.2
08:35 1007 29.74 836 24.69 -5.1 22.9 94 -5.9 21.3
08:40 1007 29.74 836 24.69 -5.1 22.9 94 -5.9 21.3
08:45 1007 29.74 837 24.72 -5.1 22.9 94 -5.9 21.4
08:50 1007 29.74 837 24.72 -5 23 94 -5.9 21.4
08:55 1008 29.77 837 24.72 -5 23 94 -5.8 21.5
09:00 1008 29.77 837 24.72 -5 23 94 -5.9 21.5
09:05 1008 29.77 837 24.72 -5 22.9 94 -5.9 21.4
09:10 1008 29.77 837 24.72 -5.1 22.9 93 -6 21.3
09:15 1008 29.77 837 24.72 -5.1 22.8 94 -6 21.3
09:20 1008 29.77 837 24.72 -5.1 22.9 94 -5.9 21.3
09:25 1008 29.77 837 24.72 -5 22.9 94 -5.9 21.3
09:30 1008 29.77 837 24.72 -5 23 94 -5.9 21.4
09:35 1008 29.77 838 24.75 -5 23 93 -5.9 21.4
09:40 1008 29.77 838 24.75 -5 23.1 93 -5.9 21.4
09:45 1009 29.8 838 24.75 -4.8 23.3 93 -5.8 21.6
09:50 1009 29.8 838 24.75 -4.8 23.4 92 -5.9 21.3
09:55 1009 29.8 838 24.75 -4.8 23.4 92 -5.9 21.3
10:00 1009 29.8 838 24.75 -4.7 23.6 91 -5.9 21.3
10:05 1009 29.8 838 24.75 -4.6 23.7 91 -5.9 21.4
10:10 1009 29.8 838 24.75 -4.6 23.7 90 -6 21.3
10:15 1009 29.8 838 24.75 -4.6 23.8 90 -5.9 21.3
10:20 1009 29.8 838 24.75 -4.5 23.8 90 -6 21.3
10:25 1009 29.8 839 24.78 -4.5 23.8 89 -6.1 21.1
10:30 1009 29.8 839 24.78 -4.5 23.9 88 -6.2 20.9
10:35 1009 29.8 839 24.78 -4.4 24 89 -6 21.2
10:40 1009 29.8 839 24.78 -4.4 24.1 88 -6.2 20.9
10:45 1010 29.83 839 24.78 -4.3 24.2 87 -6.1 21
10:50 1010 29.83 839 24.78 -4.3 24.3 87 -6 21.1
10:55 1010 29.83 839 24.78 -4.2 24.4 88 -6 21.3
11:00 1010 29.83 839 24.78 -4.1 24.6 87 -5.9 21.3
11:05 1010 29.83 839 24.78 -4 24.7 88 -5.8 21.6
11:10 1010 29.83 839 24.78 -4.1 24.7 87 -5.8 21.5
11:15 1010 29.83 839 24.78 -4.3 24.3 88 -5.9 21.3
11:20 1010 29.83 839 24.78 -4.4 24.2 89 -5.9 21.5
11:25 1010 29.83 839 24.78 -4.3 24.2 89 -5.8 21.5
11:30 1010 29.83 839 24.78 -4.2 24.4 89 -5.7 21.7
11:35 1010 29.83 839 24.78 -4 24.8 89 -5.5 22.1
11:40 1010 29.83 839 24.78 -3.6 25.5 87 -5.4 22.2
11:45 1010 29.83 839 24.78 -3.4 25.9 87 -5.3 22.4
11:50 1010 29.83 839 24.78 -3.2 26.3 85 -5.4 22.3
11:55 1010 29.83 840 24.81 -3 26.6 84 -5.3 22.4
12:00 1010 29.83 840 24.81 -2.9 26.7 83 -5.4 22.3
12:05 1010 29.83 840 24.81 -3.1 26.4 84 -5.5 22.2
12:10 1011 29.85 840 24.81 -3.1 26.4 84 -5.4 22.3
12:15 1011 29.85 840 24.81 -3.1 26.4 84 -5.4 22.3
12:20 1011 29.85 840 24.81 -3.2 26.2 85 -5.5 22.1
12:25 1011 29.85 840 24.81 -3.2 26.3 84 -5.5 22
12:30 1011 29.85 840 24.81 -3.2 26.2 84 -5.6 21.9
12:35 1011 29.85 840 24.81 -3.3 26.1 84 -5.6 21.9
12:40 1011 29.85 840 24.81 -3.2 26.2 84 -5.5 22
12:45 1011 29.85 840 24.81 -3.1 26.4 83 -5.6 21.9
12:50 1011 29.85 840 24.81 -3.2 26.3 82 -5.7 21.7
12:55 1011 29.85 840 24.81 -3.2 26.3 83 -5.6 21.8
13:00 1011 29.85 840 24.81 -3.2 26.3 83 -5.7 21.8
13:05 1011 29.85 840 24.81 -3.2 26.2 83 -5.8 21.6
13:10 1011 29.85 840 24.81 -3.4 25.9 83 -5.9 21.3
13:15 1011 29.85 840 24.81 -3.6 25.5 84 -6 21.2
13:20 1011 29.85 840 24.81 -3.7 25.4 84 -6 21.3
13:25 1011 29.85 840 24.81 -3.2 26.2 82 -5.8 21.5
13:30 1011 29.85 840 24.81 -2.9 26.8 80 -5.8 21.5
13:35 1011 29.85 840 24.81 -2.8 26.9 80 -5.9 21.5
13:40 1011 29.85 840 24.81 -2.8 27 80 -5.8 21.6
13:45 1011 29.85 840 24.81 -2.6 27.3 79 -5.8 21.6
13:50 1011 29.85 840 24.81 -2.5 27.4 78 -5.8 21.6
13:55 1011 29.85 840 24.81 -2.6 27.3 79 -5.7 21.8
14:00 1011 29.85 840 24.81 -2.6 27.4 80 -5.6 22
14:05 1011 29.85 840 24.81 -2.7 27.1 80 -5.7 21.7
14:10 1011 29.85 840 24.81 -2.6 27.3 79 -5.8 21.5
14:15 1011 29.85 840 24.81 -2.7 27.1 80 -5.8 21.6
14:20 1011 29.85 840 24.81 -2.9 26.8 80 -5.9 21.4
14:25 1011 29.85 840 24.81 -3.2 26.3 81 -5.9 21.3
14:30 1011 29.85 840 24.81 -3.3 26 83 -5.8 21.5
14:35 1011 29.85 840 24.81 -3.4 25.9 83 -5.9 21.4
14:40 1011 29.85 840 24.81 -2.9 26.7 80 -5.9 21.4
14:45 1011 29.85 840 24.81 -2.7 27.2 78 -5.9 21.3
14:50 1011 29.85 841 24.83 -2.6 27.3 78 -5.9 21.4
14:55 1011 29.85 841 24.83 -2.6 27.3 78 -5.8 21.5
15:00 1012 29.88 841 24.83 -2.6 27.4 78 -6 21.2
15:05 1012 29.88 841 24.83 -2.7 27.2 79 -5.8 21.5
15:10 1012 29.88 841 24.83 -2.7 27.2 79 -5.8 21.5
15:15 1012 29.88 841 24.83 -2.7 27.1 79 -5.8 21.5
15:20 1012 29.88 841 24.83 -2.7 27.1 79 -5.8 21.5
15:25 1012 29.88 841 24.83 -2.8 26.9 80 -5.8 21.5
15:30 1012 29.88 841 24.83 -3 26.5 82 -5.8 21.6
15:35 1012 29.88 841 24.83 -3.2 26.2 83 -5.8 21.6
15:40 1012 29.88 841 24.83 -3.3 26 83 -5.8 21.6
15:45 1012 29.88 841 24.83 -3.5 25.7 84 -5.8 21.5
15:50 1012 29.88 841 24.83 -3.8 25.1 86 -5.9 21.4
15:55 1012 29.88 841 24.83 -3.9 25 86 -5.9 21.3
16:00 1012 29.88 841 24.83 -3.8 25.1 85 -6 21.2
16:05 1012 29.88 842 24.86 -3.8 25.2 85 -6 21.2
16:10 1012 29.88 842 24.86 -3.8 25.2 85 -5.9 21.4
16:15 1012 29.88 842 24.86 -3.7 25.3 84 -6 21.2
16:20 1012 29.88 842 24.86 -3.6 25.4 84 -5.9 21.4
16:25 1012 29.88 842 24.86 -3.5 25.7 83 -6 21.3
16:30 1013 29.91 842 24.86 -3.5 25.7 83 -6 21.2
16:35 1013 29.91 842 24.86 -3.7 25.3 84 -6 21.1
16:40 1013 29.91 842 24.86 -3.8 25.1 85 -6 21.1
16:45 1013 29.91 842 24.86 -3.7 25.4 83 -6.1 21
16:50 1013 29.91 842 24.86 -3.6 25.5 82 -6.3 20.7
16:55 1013 29.91 842 24.86 -3.5 25.8 81 -6.3 20.7
17:00 1013 29.91 842 24.86 -3.3 26 78 -6.6 20.1
17:05 1013 29.91 842 24.86 -3.3 26.1 77 -6.8 19.7
17:10 1013 29.91 842 24.86 -3.2 26.2 75 -7.1 19.2
17:15 1013 29.91 842 24.86 -3.1 26.4 76 -6.7 19.9
17:20 1013 29.91 842 24.86 -3.1 26.5 74 -7.1 19.3
17:25 1013 29.91 842 24.86 -3.1 26.4 74 -7.1 19.2
17:30 1013 29.91 842 24.86 -3.1 26.3 73 -7.3 18.8
17:35 1013 29.91 842 24.86 -3.1 26.5 74 -7 19.3
17:40 1013 29.91 842 24.86 -3.1 26.4 73 -7.3 18.8
17:45 1013 29.91 842 24.86 -3.2 26.3 74 -7.1 19.2
17:50 1013 29.91 842 24.86 -3.2 26.3 73 -7.3 18.8
17:55 1013 29.91 842 24.86 -3.1 26.4 74 -7.2 19
18:00 1013 29.91 842 24.86 -3.1 26.3 75 -7 19.3
18:05 1013 29.91 842 24.86 -3.2 26.3 73 -7.3 18.9
18:10 1013 29.91 842 24.86 -3.1 26.4 73 -7.3 18.8
18:15 1013 29.91 842 24.86 -3.2 26.3 74 -7.1 19.2
18:20 1013 29.91 842 24.86 -3.2 26.3 73 -7.3 18.8
18:25 1013 29.91 842 24.86 -3.2 26.3 72 -7.4 18.6
18:30 1013 29.91 842 24.86 -3.3 26.1 72 -7.6 18.3
18:35 1013 29.91 842 24.86 -3.4 26 72 -7.7 18.2
18:40 1013 29.91 842 24.86 -3.4 26 71 -7.9 17.9
18:45 1013 29.91 843 24.89 -3.3 26 71 -7.9 17.9
18:50 1013 29.91 843 24.89 -3.3 26.1 71 -7.9 17.8
18:55 1013 29.91 843 24.89 -3.2 26.2 69 -8.1 17.4
19:00 1013 29.91 843 24.89 -3.2 26.3 69 -8.1 17.5
19:05 1013 29.91 843 24.89 -3.1 26.4 69 -7.9 17.7
19:10 1013 29.91 843 24.89 -3.1 26.3 70 -7.8 17.9
19:15 1013 29.91 843 24.89 -3.2 26.2 71 -7.8 18
19:20 1013 29.91 843 24.89 -3.3 26.1 71 -7.8 18
19:25 1013 29.91 843 24.89 -3.4 25.9 72 -7.7 18.1
19:30 1013 29.91 843 24.89 -3.4 25.9 72 -7.8 17.9
19:35 1013 29.91 843 24.89 -3.4 25.8 73 -7.6 18.3
19:40 1014 29.94 843 24.89 -3.4 25.8 74 -7.5 18.6
19:45 1014 29.94 843 24.89 -3.7 25.4 74 -7.6 18.3
19:50 1014 29.94 843 24.89 -3.8 25.1 75 -7.7 18.1
19:55 1014 29.94 843 24.89 -3.8 25.1 74 -7.7 18.1
20:00 1014 29.94 843 24.89 -3.7 25.3 73 -7.8 17.9
20:05 1014 29.94 843 24.89 -3.6 25.4 75 -7.5 18.4
20:10 1014 29.94 843 24.89 -3.7 25.4 76 -7.2 19
20:15 1014 29.94 843 24.89 -3.8 25.2 78 -7 19.3
20:20 1014 29.94 843 24.89 -3.9 25 79 -7 19.5
20:25 1014 29.94 843 24.89 -4 24.8 81 -6.8 19.8
20:30 1014 29.94 843 24.89 -4 24.8 81 -6.8 19.7
20:35 1014 29.94 843 24.89 -4 24.7 81 -6.9 19.7
20:40 1014 29.94 843 24.89 -4 24.8 81 -6.7 19.9
20:45 1014 29.94 843 24.89 -4 24.7 82 -6.6 20.1
20:50 1014 29.94 844 24.92 -4.1 24.6 83 -6.6 20.2
20:55 1014 29.94 844 24.92 -4.3 24.3 84 -6.6 20
21:00 1014 29.94 844 24.92 -4.3 24.3 83 -6.7 19.9
21:05 1014 29.94 844 24.92 -4.1 24.6 82 -6.7 19.9
21:10 1015 29.97 844 24.92 -3.9 24.9 81 -6.7 19.9
21:15 1015 29.97 844 24.92 -3.9 24.9 81 -6.7 20
21:20 1015 29.97 844 24.92 -3.9 24.9 81 -6.8 19.8
21:25 1015 29.97 844 24.92 -3.9 25 81 -6.7 19.9
21:30 1015 29.97 844 24.92 -4 24.9 81 -6.7 19.9
21:35 1015 29.97 844 24.92 -4 24.8 82 -6.7 20
21:40 1015 29.97 844 24.92 -4 24.8 81 -6.8 19.8
21:45 1015 29.97 844 24.92 -4 24.8 81 -6.7 19.9
21:50 1015 29.97 844 24.92 -4 24.7 82 -6.6 20.1
21:55 1015 29.97 844 24.92 -4.1 24.6 83 -6.6 20.1
22:00 1015 29.97 844 24.92 -4.2 24.4 83 -6.8 19.8
22:05 1015 29.97 844 24.92 -4.3 24.2 83 -6.7 19.9
22:10 1015 29.97 844 24.92 -4.4 24 85 -6.7 20
22:15 1015 29.97 844 24.92 -4.6 23.7 84 -7 19.5
22:20 1015 29.97 844 24.92 -4.6 23.7 84 -7 19.4
22:25 1015 29.97 844 24.92 -4.7 23.5 84 -7.1 19.3
22:30 1015 29.97 844 24.92 -4.8 23.4 83 -7.2 19.1
22:35 1015 29.97 844 24.92 -4.8 23.4 84 -7.1 19.3
22:40 1015 29.97 844 24.92 -4.7 23.5 83 -7.1 19.2
22:45 1014 29.94 844 24.92 -4.7 23.6 83 -7.1 19.2
22:50 1014 29.94 844 24.92 -4.7 23.6 84 -7 19.4
22:55 1014 29.94 844 24.92 -4.7 23.5 84 -7 19.4
23:00 1014 29.94 844 24.92 -4.7 23.5 83 -7.2 19
23:05 1014 29.94 844 24.92 -4.7 23.6 81 -7.4 18.6
23:10 1014 29.94 844 24.92 -4.3 24.2 78 -7.5 18.4
23:15 1014 29.94 844 24.92 -3.9 25 77 -7.3 18.8
23:20 1014 29.94 844 24.92 -4 24.8 79 -7.2 19.1
23:25 1014 29.94 844 24.92 -4.1 24.6 80 -7 19.3
23:30 1014 29.94 844 24.92 -4.2 24.4 81 -7 19.5
23:35 1014 29.94 844 24.92 -4.4 24.2 83 -6.9 19.6
23:40 1014 29.94 844 24.92 -4.4 24 83 -6.9 19.5
23:45 1014 29.94 844 24.92 -4.6 23.8 83 -7 19.4
23:50 1014 29.94 844 24.92 -4.6 23.8 83 -7.1 19.2
23:55 1014 29.94 844 24.92 -4.5 23.9 81 -7.3 18.8
24:00 1014 29.94 844 24.92 -4.4 24 80 -7.3 18.8